Powrót do katalogu

STARLINK-5440

AktywnyŁącznośćVLEO
NORAD 54785·PAYLOAD·🇺🇸 United States

Wystrzelony Dec 17, 2022 z Cape Canaveral Space Force Station

Loading…

Następne Przeloty (najbliższe 24 godziny)

TLE

ŚwieżeSource: CelesTrak SupGP

Epoka: Sep 15, 2026, 02:39 UTC

1 54785C 22175AD  26258.11090278 -.00020539  00000+0 -60712-3 0  2584
2 54785  53.1575 204.8880 0001329  88.0602 351.9690 15.34385144    18

Śledź STARLINK-5440 w czasie rzeczywistym z AllMySat

Download on the App Store